Regional Weather Roundup
Issued by NWS

Home | Current Version | Previous Version | Text Only | Print | Product List | Glossary On
Versions: 1 2 3 4 5 6 7 8 9 10 11 12 13 14 15 16 17 18 19 20 21 22 23 24 25 26 27 28 29 30 31 32 33 34 35 36 37 38 39 40 41 42 43 44 45 46 47 48 49 50
000
ASUS44 KFWD 301710
RWRTX
NORTH TEXAS HOURLY WEATHER ROUNDUP
NATIONAL WEATHER SERVICE FORT WORTH TX
1200 PM CDT SAT MAY 30 2015

NOTE: "FAIR" INDICATES FEW OR NO CLOUDS BELOW 12,000 FEET WITH NO
SIGNIFICANT WEATHER AND/OR OBSTRUCTIONS TO VISIBILITY.

TXZ118-119-301800-
DALLAS/FORT WORTH METROPLEX

CITY           SKY/WX    TMP DP  RH WIND       PRES   REMARKS
DFW AIRPORT    CLOUDY    70  66  87 NW14      30.08R
DALLAS LOVE    LGT RAIN  75  66  73 NW16      30.08R
FTW MEACHAM      N/A    N/A N/A N/A MISG      30.10R
DAL-EXECUTIVE  CLOUDY    73  67  81 NW14      30.08R
FTW-ALLIANCE   CLOUDY    70  66  87 NW12G21   30.10R
FTW-NAS-JRB    CLOUDY    72  67  84 NW14      30.11R
FTW-SPINKS     PTSUNNY   72  66  83 NW9       30.12R
ARLINGTON      PTSUNNY   75  65  70 W13       30.10R
GRAND PRAIRIE  PTSUNNY   72  66  83 W10       30.11R
ADDISON        CLOUDY    73  68  83 W13G18    30.11
MESQUITE       SUNNY     73  66  78 N5        30.05R
LANCASTER      CLOUDY    73  64  74 CALM      30.06R
$$

TXZ091>094-102>105-117-120-121-131>134-301800-
NORTH CENTRAL TEXAS

CITY           SKY/WX    TMP DP  RH WIND       PRES   REMARKS
SHRMAN/DENISON CLOUDY    69  69  98 NW16      30.11R
GAINESVILLE    LGT RAIN  67  65  93 N18G25    30.14R
BOWIE          LGT RAIN  62  62 100 N12       30.12F
BRIDGEPORT     CLOUDY    68  67  95 NW7G16    30.14F
DECATUR        CLOUDY    68  67  96 NW7       30.12F
DENTON         LGT RAIN  69  67  93 NW13      30.10S
MCKINNEY       CLOUDY    71  68  90 NW13      30.09R
GREENVILLE     CLOUDY    73  68  83 NE7       30.04R
ROCKWALL       CLOUDY    74  68  80 NE6       30.03R
TERRELL        CLOUDY    74  67  78 NE9       30.03R
WAXAHACHIE     PTSUNNY   73  67  81 NW6       30.10R
CLEBURNE       CLOUDY    72  70  94 NW9       30.12R
GRANBURY       CLOUDY    71  67  86 N7        30.13R
$$

TXZ083>090-098>101-113>116-127>130-139>142-154-155-301800-
WESTERN NORTH TEXAS

CITY           SKY/WX    TMP DP  RH WIND       PRES   REMARKS
WICHITA FALLS  CLOUDY    64  58  80 N14       30.18R
WF-KICKAPOO    CLOUDY    65  59  80 N8        30.20R
VERNON         PTSUNNY   70  53  54 N15       30.20S
ABILENE        CLOUDY    69  62  78 N20       30.17R
ABILENE-DYESS  CLOUDY    67  59  73 N16       30.16R
BRECKENRIDGE   MOSUNNY   74  63  67 N14       30.15R
GRAHAM         LGT RAIN  67  65  94 N3        30.14S
MINERAL WELLS  LGT RAIN  72  64  76 N9        30.11R
STEPHENVILLE   PTSUNNY   75  62  64 N12G22    30.14S
COMANCHE       MOSUNNY   76  65  68 N13G21    30.12R
BROWNWOOD      MOSUNNY   77  63  61 N10       30.13R
COLEMAN        PTSUNNY   76  63  63 N10G20    30.15R
BRADY          SUNNY     77  63  61 N12       30.14R
$$

TXZ143>147-156>162-174-175-301800-
CENTRAL TEXAS

CITY           SKY/WX    TMP DP  RH WIND       PRES   REMARKS
WACO           MOSUNNY   77  66  68 NW5       30.07R
WACO-TSTC      SUNNY     77  66  69 NE3       30.06R
WACO-MCGREGOR  SUNNY     75  64  69 N5        30.08R
HILLSBORO      PTSUNNY   73  64  74 NW7       30.09R
CORSICANA      CLOUDY    73  65  75 E5        30.06R
MEXIA          PTSUNNY   74  67  81 CALM      30.06R
HEARNE         PTSUNNY   80  69  68 CALM      30.05R
CAMERON        CLOUDY    79  69  71 N7        30.06S
TEMPLE         SUNNY     79  64  61 NE8       30.06S
KILLEEN        SUNNY     78  64  62 VRB6      30.07R
KILLEEN-SKYLRK SUNNY     79  64  61 N6        30.07R
FORT HOOD      SUNNY     77  64  65 NW7       30.07R
GATESVILLE     MOSUNNY   77  64  65 N7        30.11R
HAMILTON       MOSUNNY   75  63  64 N9G17     30.12R
LAMPASAS       MOSUNNY   78  68  72 W7        30.09R
$$

TXZ095>097-106>112-122>126-135>138-148>153-164>167-301800-
EAST TEXAS

CITY           SKY/WX    TMP DP  RH WIND       PRES   REMARKS
PARIS          CLOUDY    70  64  83 CALM      30.11R
SULPHUR SPRNGS CLOUDY    70  69  98 NE10      30.06F
MOUNT PLEASANT CLOUDY    68  67  97 N9        30.05F
GILMER         CLOUDY   N/A N/A N/A SE5       30.03F
MINEOLA        CLOUDY    68  68 100 CALM      30.04R FOG
TYLER          CLOUDY    69  69 100 E8        30.03F
LONGVIEW       CLOUDY    70  67  90 E8        30.04F
MARSHALL       CLOUDY    68  65  90 NE5       30.08F
ATHENS         CLOUDY    70  64  83 NE7       30.03R
PALESTINE      CLOUDY    73  68  82 NE9       30.04F
JACKSONVILLE   CLOUDY    72  66  81 NE7       30.07F
NACOGDOCHES    CLOUDY    77  66  69 N7        30.05F
LUFKIN         CLOUDY    79  64  60 N8        30.06F
$$

SUPPLEMENTAL OBSERVATIONS (CENTRAL)

CITY           SKY/WX    TMP DP  RH WIND       PRES   REMARKS
CADDO GRASSLND   N/A     70  68  94 N5          N/A
PAT MAYSE LAKE   N/A     66  64  94 S5          N/A
GREENVILLE       N/A     73  68  83 NE13        N/A
CEDAR HILL       N/A     75  68  78 NW6         N/A
MCGREGOR         N/A     79  64  61 NE5         N/A
TEMPLE           N/A     81  66  61 E7          N/A
$$

SUPPLEMENTAL OBSERVATIONS (WEST)

CITY           SKY/WX    TMP DP  RH WIND       PRES   REMARKS
MILLERS CREEK    N/A     66  59  77 N12         N/A
POSSUM KINGDOM   N/A     73  63  68 N8G17       N/A
LBJ GRASSLAND    N/A     72  66  83 NW7         N/A
GRANBURY         N/A     72  66  83 NE9         N/A
HAMBY            N/A     66  61  82 N12G20      N/A
IVIE RESERVOIR   N/A     79  63  57 N9          N/A
COLORADO BEND    N/A     81  66  61 NW6         N/A
$$

SUPPLEMENTAL OBSERVATIONS (EAST)

CITY           SKY/WX    TMP DP  RH WIND       PRES   REMARKS
CLARKSVILLE      N/A     70  68  94 CALM        N/A
TEXARKANA        N/A     75  68  78 SW6G16      N/A
LINDEN           N/A     66  64  94 E1          N/A
GILMER           N/A     66  63  88 SE5         N/A
HENDERSON        N/A     70  64  83 NE7         N/A
LUFKIN           N/A     79  64  61 MISG        N/A
N SABINE NF      N/A     81  66  61 MISG        N/A
S SABINE NF      N/A     81  68  65 CALM        N/A
$$

SUPPLEMENTAL OBSERVATIONS ARE A COLLECTION OF AUTOMATED INSTRUMENTS
THAT ARE MAINTAINED BY A VARIETY OF FEDERAL AND STATE AGENCIES.
CERTAIN ELEMENTS...SUCH AS HUMIDITY VALUES AND SUSTAINED WIND
SPEEDS...MAY BE APPROXIMATED.




USA.gov is the U.S. government's official web portal to all federal, state and local government web resources and services.